| time (UTC) | temp F | wind direction | speed MPH | gust MPH | rain 1hr in | rain 24hr in | rain mn in | humidity % | barometer mb |
| 20260902181552 | 74 | 98 | 1.0 | 10.0 | 0.00 | 0.02 | 0.01 | 88 | 1020.9 |
| 20260902180050 | 73 | 228 | 2.0 | 11.0 | 0.00 | 0.02 | 0.01 | 89 | 1021.1 |
| 20260902174547 | 72 | 86 | 2.0 | 12.0 | 0.00 | 0.02 | 0.01 | 90 | 1021.5 |
| 20260902173045 | 72 | 88 | 7.0 | 11.0 | 0.00 | 0.02 | 0.01 | 90 | 1021.5 |
| 20260902171545 | 72 | 28 | 3.0 | 4.0 | 0.00 | 0.02 | 0.01 | 90 | 1021.9 |
| 20260902170045 | 72 | 40 | 2.0 | 8.0 | 0.00 | 0.02 | 0.01 | 89 | 1021.9 |
| 20260902164544 | 72 | 67 | 3.0 | 10.0 | 0.00 | 0.02 | 0.01 | 89 | 1022.0 |
| 20260902163054 | 72 | 74 | 5.0 | 12.0 | 0.00 | 0.02 | 0.01 | 89 | 1022.0 |
| 20260902161544 | 73 | 70 | 5.0 | 9.0 | 0.00 | 0.02 | 0.01 | 90 | 1021.8 |
| 20260902160044 | 73 | 78 | 3.0 | 6.0 | 0.00 | 0.02 | 0.01 | 90 | 1021.6 |
| 20260902154543 | 72 | 121 | 3.0 | 9.0 | 0.00 | 0.02 | 0.01 | 90 | 1021.4 |
| 20260902153042 | 72 | 224 | 1.0 | 5.0 | 0.00 | 0.02 | 0.01 | 90 | 1021.9 |
| 20260902151542 | 72 | 222 | 2.0 | 6.0 | 0.00 | 0.02 | 0.01 | 89 | 1021.7 |
| 20260902150041 | 72 | 175 | 0.0 | 5.0 | 0.00 | 0.02 | 0.01 | 89 | 1021.9 |
| 20260902144541 | 72 | 253 | 1.0 | 4.0 | 0.00 | 0.02 | 0.01 | 89 | 1022.0 |
| 20260902143039 | 72 | 175 | 1.0 | 4.0 | 0.00 | 0.02 | 0.01 | 88 | 1021.3 |
| 20260902141543 | 73 | 67 | 3.0 | 5.0 | 0.00 | 0.02 | 0.01 | 88 | 1021.6 |
| 20260902140044 | 73 | 225 | 1.0 | 2.0 | 0.00 | 0.02 | 0.01 | 88 | 1021.8 |
| 20260902134553 | 73 | 225 | 2.0 | 4.0 | 0.00 | 0.03 | 0.01 | 89 | 1022.2 |
| 20260902133034 | 73 | 252 | 2.0 | 4.0 | 0.00 | 0.03 | 0.01 | 90 | 1021.8 |
| 20260902131543 | 73 | 200 | 1.0 | 11.0 | 0.00 | 0.03 | 0.01 | 90 | 1021.6 |
| 20260902130025 | 72 | 186 | 1.0 | 8.0 | 0.01 | 0.03 | 0.01 | 91 | 1021.6 |
| 20260902124525 | 72 | 164 | 1.0 | 10.0 | 0.01 | 0.03 | 0.01 | 91 | 1021.6 |
| 20260902123023 | 71 | 181 | 2.0 | 7.0 | 0.01 | 0.03 | 0.01 | 92 | 1021.3 |
| 20260902121522 | 70 | 85 | 0.0 | 2.0 | 0.01 | 0.03 | 0.01 | 92 | 1021.3 |
| 20260902120021 | 70 | 85 | 1.0 | 3.0 | 0.00 | 0.02 | 0.00 | 92 | 1021.0 |
| 20260902114522 | 69 | 134 | 1.0 | 3.0 | 0.00 | 0.02 | 0.00 | 92 | 1020.9 |
| 20260902113021 | 69 | 134 | 1.0 | 3.0 | 0.00 | 0.02 | 0.00 | 91 | 1020.9 |
| 20260902111520 | 68 | 206 | 0.0 | 2.0 | 0.00 | 0.02 | 0.00 | 91 | 1020.7 |
| 20260902110020 | 68 | 206 | 0.0 | 2.0 | 0.00 | 0.02 | 0.00 | 92 | 1020.7 |
| 20260902104519 | 68 | 206 | 0.0 | 2.0 | 0.00 | 0.02 | 0.00 | 91 | 1020.9 |
| 20260902103018 | 68 | 206 | 0.0 | 2.0 | 0.00 | 0.02 | 0.00 | 91 | 1021.0 |
| 20260902101518 | 68 | 206 | 0.0 | 3.0 | 0.00 | 0.02 | 0.00 | 91 | 1021.1 |
| 20260902100018 | 68 | 206 | 0.0 | 3.0 | 0.00 | 0.02 | 0.00 | 91 | 1021.2 |
| 20260902094518 | 68 | 206 | 0.0 | 3.0 | 0.00 | 0.02 | 0.00 | 91 | 1021.0 |
| 20260902093017 | 68 | 206 | 0.0 | 2.0 | 0.00 | 0.02 | 0.00 | 91 | 1021.0 |
| 20260902091533 | 68 | 206 | 0.0 | 2.0 | 0.00 | 0.02 | 0.00 | 91 | 1021.0 |
| 20260902090015 | 68 | 206 | 1.0 | 2.0 | 0.00 | 0.02 | 0.00 | 91 | 1021.1 |
| 20260902084515 | 68 | 206 | 0.0 | 2.0 | 0.00 | 0.02 | 0.00 | 91 | 1021.1 |
| 20260902083014 | 68 | 206 | 0.0 | 3.0 | 0.00 | 0.02 | 0.00 | 91 | 1021.1 |
| 20260902081526 | 67 | 206 | 1.0 | 3.0 | 0.00 | 0.02 | 0.00 | 91 | 1021.0 |
| 20260902080013 | 67 | 206 | 0.0 | 3.0 | 0.00 | 0.02 | 0.00 | 91 | 1020.8 |
| 20260902074513 | 67 | 206 | 1.0 | 4.0 | 0.00 | 0.02 | 0.00 | 91 | 1021.0 |
| 20260902073011 | 68 | 212 | 2.0 | 5.0 | 0.00 | 0.02 | 0.00 | 91 | 1020.9 |
| 20260902071526 | 68 | 211 | 3.0 | 6.0 | 0.00 | 0.02 | 0.00 | 91 | 1020.8 |
| 20260902070008 | 69 | 197 | 1.0 | 3.0 | 0.00 | 0.02 | 0.00 | 91 | 1021.0 |
| 20260902064508 | 69 | 196 | 2.0 | 4.0 | 0.00 | 0.02 | 0.00 | 91 | 1021.1 |
| 20260902063009 | 69 | 193 | 2.0 | 3.0 | 0.00 | 0.02 | 0.00 | 91 | 1020.9 |
| 20260902061509 | 69 | 193 | 1.0 | 2.0 | 0.00 | 0.02 | 0.00 | 91 | 1021.0 |
| 20260902060013 | 69 | 193 | 0.0 | 3.0 | 0.00 | 0.02 | 0.00 | 91 | 1021.2 |
| 20260902054504 | 69 | 193 | 2.0 | 4.0 | 0.00 | 0.02 | 0.00 | 91 | 1021.1 |
| 20260902053002 | 70 | 194 | 1.0 | 4.0 | 0.00 | 0.02 | 0.00 | 90 | 1021.0 |
| 20260902051501 | 70 | 185 | 1.0 | 6.0 | 0.00 | 0.02 | 0.00 | 90 | 1020.9 |
| 20260902050104 | 70 | 232 | 2.0 | 5.0 | 0.00 | 0.02 | 0.00 | 90 | 1020.9 |
| 20260902044558 | 70 | 244 | 3.0 | 7.0 | 0.00 | 0.02 | 0.00 | 90 | 1020.9 |
| 20260902043057 | 71 | 221 | 2.0 | 5.0 | 0.00 | 0.02 | 0.00 | 90 | 1020.8 |
| 20260902041553 | 72 | 244 | 1.0 | 3.0 | 0.00 | 0.02 | 0.00 | 89 | 1020.7 |
| 20260902040052 | 72 | 205 | 1.0 | 3.0 | 0.00 | 0.02 | 0.00 | 89 | 1020.5 |
| 20260902034551 | 72 | 222 | 3.0 | 6.0 | 0.00 | 0.02 | 0.02 | 89 | 1020.6 |
| 20260902033053 | 72 | 212 | 2.0 | 5.0 | 0.00 | 0.02 | 0.02 | 88 | 1020.4 |
| 20260902031550 | 73 | 209 | 2.0 | 3.0 | 0.00 | 0.02 | 0.02 | 88 | 1020.3 |
| 20260902030049 | 73 | 209 | 0.0 | 2.0 | 0.00 | 0.02 | 0.02 | 88 | 1020.1 |
| 20260902024550 | 74 | 209 | 0.0 | 2.0 | 0.00 | 0.02 | 0.02 | 87 | 1019.9 |
| 20260902023049 | 74 | 209 | 0.0 | 3.0 | 0.00 | 0.02 | 0.02 | 87 | 1020.1 |
| 20260902021553 | 74 | 209 | 1.0 | 2.0 | 0.00 | 0.02 | 0.02 | 87 | 1020.1 |
| 20260902020048 | 75 | 209 | 1.0 | 3.0 | 0.00 | 0.02 | 0.02 | 87 | 1020.0 |
| 20260902014549 | 75 | 209 | 0.0 | 1.0 | 0.00 | 0.02 | 0.02 | 87 | 1019.9 |
| 20260902013047 | 75 | 209 | 0.0 | 2.0 | 0.00 | 0.02 | 0.02 | 87 | 1019.7 |
| 20260902011555 | 75 | 208 | 0.0 | 3.0 | 0.00 | 0.02 | 0.02 | 87 | 1019.5 |
| 20260902010109 | 75 | 239 | 3.0 | 6.0 | 0.00 | 0.02 | 0.02 | 87 | 1019.5 |
| 20260902004545 | 76 | 205 | 3.0 | 5.0 | 0.01 | 0.02 | 0.02 | 86 | 1019.4 |
| 20260902003046 | 76 | 251 | 1.0 | 4.0 | 0.01 | 0.02 | 0.02 | 85 | 1019.0 |
| 20260902001545 | 77 | 282 | 1.0 | 2.0 | 0.01 | 0.02 | 0.02 | 83 | 1018.8 |
| 20260902000049 | 78 | 282 | 0.0 | 2.0 | 0.01 | 0.02 | 0.02 | 80 | 1018.4 |
| 20260901234544 | 79 | 282 | 0.0 | 2.0 | 0.00 | 0.01 | 0.01 | 80 | 1018.6 |
| 20260901233056 | 80 | 287 | 0.0 | 3.0 | 0.00 | 0.01 | 0.01 | 78 | 1018.8 |
| 20260901231552 | 83 | 350 | 1.0 | 3.0 | 0.00 | 0.01 | 0.01 | 73 | 1018.7 |
| 20260901230043 | 84 | 350 | 0.0 | 2.0 | 0.00 | 0.01 | 0.01 | 71 | 1018.5 |
| 20260901224545 | 84 | 350 | 0.0 | 1.0 | 0.00 | 0.02 | 0.01 | 70 | 1018.5 |
| 20260901223050 | 84 | 350 | 0.0 | 2.0 | 0.00 | 0.02 | 0.01 | 71 | 1018.3 |
| 20260901221542 | 84 | 350 | 0.0 | 1.0 | 0.00 | 0.02 | 0.01 | 70 | 1018.3 |
| 20260901220043 | 84 | 351 | 0.0 | 3.0 | 0.00 | 0.02 | 0.01 | 71 | 1018.6 |
| 20260901214541 | 83 | 44 | 1.0 | 4.0 | 0.00 | 0.02 | 0.01 | 71 | 1018.5 |
| 20260901213043 | 84 | 51 | 1.0 | 4.0 | 0.00 | 0.02 | 0.01 | 71 | 1018.4 |
| 20260901211540 | 84 | 52 | 1.0 | 3.0 | 0.00 | 0.02 | 0.01 | 71 | 1018.3 |
| 20260901210041 | 84 | 331 | 0.0 | 2.0 | 0.00 | 0.02 | 0.01 | 71 | 1018.0 |
| 20260901204538 | 84 | 22 | 0.0 | 2.0 | 0.00 | 0.02 | 0.01 | 73 | 1018.1 |
| 20260901203033 | 83 | 46 | 0.0 | 3.0 | 0.00 | 0.02 | 0.01 | 75 | 1018.5 |
| 20260901201530 | 82 | 336 | 0.0 | 2.0 | 0.00 | 0.02 | 0.01 | 76 | 1018.5 |
| 20260901200041 | 82 | 316 | 1.0 | 5.0 | 0.00 | 0.02 | 0.01 | 76 | 1018.6 |
| 20260901194530 | 81 | 250 | 0.0 | 4.0 | 0.00 | 0.02 | 0.01 | 78 | 1018.7 |
| 20260901193025 | 80 | 211 | 1.0 | 7.0 | 0.00 | 0.02 | 0.01 | 78 | 1018.7 |
| 20260901191531 | 81 | 253 | 0.0 | 7.0 | 0.00 | 0.02 | 0.01 | 78 | 1018.6 |
| 20260901190022 | 80 | 281 | 2.0 | 8.0 | 0.00 | 0.02 | 0.01 | 80 | 1018.7 |
| 20260901184521 | 79 | 254 | 0.0 | 5.0 | 0.00 | 0.02 | 0.01 | 81 | 1018.7 |
| 20260901183019 | 78 | 246 | 0.0 | 4.0 | 0.00 | 0.02 | 0.01 | 87 | 1018.7 |